| time (UTC) | temp F | wind direction | speed MPH | gust MPH | rain 1hr in | rain 24hr in | rain mn in | humidity % | barometer mb |
| 20260831220545 | 76 | 168 | 0.0 | 0.0 | 0.00 | 0.03 | 0.03 | 89 | 1020.2 |
| 20260831220041 | 76 | 173 | 1.0 | 1.0 | 0.00 | 0.03 | 0.03 | 87 | 1020.4 |
| 20260831215536 | 76 | 236 | 0.0 | 0.0 | 0.00 | 0.03 | 0.03 | 89 | 1020.4 |
| 20260831215032 | 75 | 163 | 0.0 | 1.0 | 0.00 | 0.03 | 0.03 | 90 | 1020.6 |
| 20260831214529 | 75 | 174 | 0.0 | 0.0 | 0.00 | 0.03 | 0.03 | 89 | 1020.5 |
| 20260831214025 | 76 | 176 | 0.0 | 0.0 | 0.00 | 0.03 | 0.03 | 88 | 1020.5 |
| 20260831213521 | 75 | 232 | 0.0 | 0.0 | 0.00 | 0.03 | 0.03 | 89 | 1020.5 |
| 20260831213016 | 76 | 174 | 0.0 | 0.0 | 0.00 | 0.03 | 0.03 | 90 | 1020.7 |
| 20260831212512 | 75 | 174 | 0.0 | 0.0 | 0.00 | 0.03 | 0.03 | 91 | 1020.5 |
| 20260831212007 | 75 | 252 | 0.0 | 0.0 | 0.00 | 0.03 | 0.03 | 89 | 1020.8 |
| 20260831211502 | 75 | 179 | 0.0 | 1.0 | 0.00 | 0.03 | 0.03 | 89 | 1020.8 |
| 20260831211001 | 75 | 267 | 1.0 | 1.0 | 0.00 | 0.03 | 0.03 | 88 | 1020.9 |
| 20260831210456 | 76 | 222 | 0.0 | 0.0 | 0.00 | 0.03 | 0.03 | 88 | 1020.9 |
| 20260831205952 | 76 | 207 | 0.0 | 0.0 | 0.00 | 0.03 | 0.03 | 88 | 1020.9 |
| 20260831205447 | 74 | 248 | 0.0 | 0.0 | 0.00 | 0.03 | 0.03 | 89 | 1020.9 |
| 20260831204943 | 74 | 208 | 0.0 | 0.0 | 0.00 | 0.03 | 0.03 | 93 | 1021.0 |
| 20260831204442 | 74 | 142 | 0.0 | 0.0 | 0.00 | 0.03 | 0.03 | 95 | 1021.2 |
| 20260831203936 | 74 | 137 | 0.0 | 0.0 | 0.00 | 0.03 | 0.03 | 96 | 1020.9 |
| 20260831203430 | 74 | 140 | 1.0 | 1.0 | 0.00 | 0.03 | 0.03 | 96 | 1020.8 |
| 20260831202928 | 74 | 180 | 0.0 | 0.0 | 0.00 | 0.03 | 0.03 | 96 | 1021.1 |
| 20260831202424 | 74 | 166 | 0.0 | 0.0 | 0.00 | 0.03 | 0.03 | 96 | 1021.2 |
| 20260831201918 | 74 | 172 | 0.0 | 0.0 | 0.00 | 0.03 | 0.03 | 96 | 1021.2 |
| 20260831201416 | 74 | 142 | 0.0 | 0.0 | 0.00 | 0.03 | 0.03 | 96 | 1021.2 |
| 20260831200912 | 74 | 142 | 0.0 | 0.0 | 0.07 | 0.03 | 0.03 | 96 | 1021.2 |
| 20260831200407 | 75 | 143 | 0.0 | 0.0 | 0.07 | 0.03 | 0.03 | 96 | 1021.4 |
| 20260831195902 | 75 | 142 | 0.0 | 0.0 | 0.00 | 0.02 | 0.02 | 95 | 1021.3 |
| 20260831195357 | 74 | 140 | 0.0 | 0.0 | 0.00 | 0.02 | 0.02 | 95 | 1021.3 |
| 20260831194853 | 73 | 140 | 0.0 | 0.0 | 0.00 | 0.02 | 0.02 | 94 | 1021.4 |
| 20260831194348 | 74 | 141 | 0.0 | 0.0 | 0.00 | 0.02 | 0.02 | 96 | 1021.4 |
| 20260831193847 | 75 | 140 | 0.0 | 0.0 | 0.05 | 0.02 | 0.02 | 95 | 1021.5 |
| 20260831193342 | 74 | 135 | 0.0 | 0.0 | 0.00 | 0.01 | 0.01 | 94 | 1021.5 |
| 20260831192838 | 75 | 133 | 0.0 | 0.0 | 0.00 | 0.01 | 0.01 | 93 | 1021.3 |
| 20260831192337 | 75 | 116 | 1.0 | 1.0 | 0.00 | 0.01 | 0.01 | 92 | 1021.6 |
| 20260831191828 | 76 | 138 | 0.0 | 0.0 | 0.00 | 0.01 | 0.01 | 91 | 1021.7 |
| 20260831191324 | 76 | 154 | 0.0 | 0.0 | 0.07 | 0.01 | 0.01 | 89 | 1021.7 |
| 20260831190819 | 76 | 170 | 0.0 | 0.0 | 0.07 | 0.01 | 0.01 | 87 | 1021.9 |
| 20260831190314 | 76 | 220 | 0.0 | 0.0 | 0.00 | 0.00 | 0.00 | 85 | 1022.1 |
| 20260831185813 | 76 | 270 | 1.0 | 1.0 | 0.00 | 0.00 | 0.00 | 84 | 1021.9 |
| 20260831185309 | 76 | 170 | 0.0 | 0.0 | 0.00 | 0.00 | 0.00 | 84 | 1021.8 |
| 20260831184808 | 77 | 164 | 0.0 | 0.0 | 0.00 | 0.00 | 0.00 | 84 | 1021.9 |
| 20260831184304 | 77 | 212 | 0.0 | 1.0 | 0.00 | 0.00 | 0.00 | 84 | 1021.9 |
| 20260831183759 | 76 | 155 | 0.0 | 0.0 | 0.00 | 0.00 | 0.00 | 84 | 1021.7 |
| 20260831183258 | 76 | 154 | 0.0 | 0.0 | 0.00 | 0.00 | 0.00 | 85 | 1022.0 |
| 20260831182757 | 76 | 158 | 0.0 | 0.0 | 0.00 | 0.00 | 0.00 | 86 | 1021.8 |
| 20260831182252 | 76 | 137 | 0.0 | 0.0 | 0.00 | 0.00 | 0.00 | 87 | 1021.9 |
| 20260831181748 | 76 | 75 | 1.0 | 2.0 | 0.00 | 0.00 | 0.00 | 85 | 1021.9 |
| 20260831181243 | 76 | 122 | 0.0 | 1.0 | 0.00 | 0.00 | 0.00 | 87 | 1021.8 |
| 20260831180743 | 76 | 106 | 1.0 | 1.0 | 0.00 | 0.00 | 0.00 | 84 | 1021.8 |
| 20260831180238 | 77 | 107 | 2.0 | 2.0 | 0.00 | 0.00 | 0.00 | 84 | 1022.1 |
| 20260831175737 | 77 | 221 | 0.0 | 0.0 | 0.00 | 0.00 | 0.00 | 84 | 1022.0 |
| 20260831175234 | 76 | 263 | 1.0 | 2.0 | 0.00 | 0.00 | 0.00 | 83 | 1021.9 |
| 20260831174729 | 76 | 136 | 0.0 | 0.0 | 0.00 | 0.00 | 0.00 | 83 | 1022.0 |
| 20260831174225 | 77 | 130 | 0.0 | 0.0 | 0.00 | 0.00 | 0.00 | 81 | 1021.9 |
| 20260831173723 | 78 | 262 | 0.0 | 0.0 | 0.00 | 0.00 | 0.00 | 79 | 1022.1 |
| 20260831173218 | 78 | 210 | 0.0 | 0.0 | 0.00 | 0.00 | 0.00 | 79 | 1022.0 |
| 20260831172718 | 78 | 210 | 1.0 | 1.0 | 0.00 | 0.00 | 0.00 | 78 | 1022.1 |
| 20260831172213 | 78 | 253 | 0.0 | 0.0 | 0.00 | 0.00 | 0.00 | 78 | 1022.2 |
| 20260831171708 | 77 | 282 | 1.0 | 1.0 | 0.00 | 0.00 | 0.00 | 79 | 1022.0 |
| 20260831171206 | 77 | 256 | 0.0 | 0.0 | 0.00 | 0.00 | 0.00 | 78 | 1022.0 |
| 20260831170702 | 77 | 236 | 0.0 | 1.0 | 0.00 | 0.00 | 0.00 | 78 | 1022.1 |
| 20260831170158 | 77 | 337 | 1.0 | 2.0 | 0.00 | 0.00 | 0.00 | 78 | 1022.1 |
| 20260831165654 | 78 | 305 | 4.0 | 5.0 | 0.00 | 0.00 | 0.00 | 79 | 1022.0 |
| 20260831165150 | 78 | 121 | 1.0 | 1.0 | 0.00 | 0.00 | 0.00 | 77 | 1022.1 |
| 20260831164646 | 78 | 142 | 0.0 | 0.0 | 0.00 | 0.00 | 0.00 | 77 | 1021.9 |
| 20260831164142 | 78 | 243 | 1.0 | 2.0 | 0.00 | 0.00 | 0.00 | 78 | 1021.7 |
| 20260831163637 | 78 | 113 | 1.0 | 1.0 | 0.00 | 0.00 | 0.00 | 79 | 1022.2 |
| 20260831163133 | 77 | 103 | 2.0 | 2.0 | 0.00 | 0.00 | 0.00 | 80 | 1022.1 |
| 20260831162632 | 77 | 120 | 1.0 | 1.0 | 0.00 | 0.00 | 0.00 | 80 | 1022.0 |
| 20260831162129 | 78 | 86 | 2.0 | 2.0 | 0.00 | 0.00 | 0.00 | 79 | 1022.1 |
| 20260831161626 | 78 | 146 | 0.0 | 1.0 | 0.00 | 0.00 | 0.00 | 80 | 1022.3 |
| 20260831161122 | 77 | 147 | 1.0 | 1.0 | 0.00 | 0.00 | 0.00 | 82 | 1022.3 |
| 20260831160621 | 76 | 203 | 1.0 | 1.0 | 0.00 | 0.00 | 0.00 | 83 | 1022.1 |
| 20260831160116 | 77 | 200 | 2.0 | 2.0 | 0.00 | 0.00 | 0.00 | 81 | 1022.0 |
| 20260831155611 | 76 | 205 | 1.0 | 2.0 | 0.00 | 0.00 | 0.00 | 83 | 1022.2 |
| 20260831155106 | 75 | 153 | 0.0 | 0.0 | 0.00 | 0.00 | 0.00 | 84 | 1022.3 |
| 20260831154602 | 75 | 140 | 1.0 | 1.0 | 0.00 | 0.00 | 0.00 | 83 | 1022.2 |
| 20260831154102 | 76 | 102 | 1.0 | 1.0 | 0.00 | 0.00 | 0.00 | 83 | 1022.2 |
| 20260831153601 | 75 | 137 | 0.0 | 0.0 | 0.00 | 0.00 | 0.00 | 85 | 1022.2 |
| 20260831153058 | 75 | 256 | 1.0 | 1.0 | 0.00 | 0.00 | 0.00 | 86 | 1022.4 |
| 20260831152553 | 74 | 274 | 2.0 | 3.0 | 0.00 | 0.00 | 0.00 | 87 | 1022.3 |
| 20260831152049 | 74 | 105 | 1.0 | 1.0 | 0.00 | 0.00 | 0.00 | 88 | 1022.2 |
| 20260831151542 | 73 | 99 | 1.0 | 1.0 | 0.00 | 0.00 | 0.00 | 89 | 1022.3 |
| 20260831151037 | 73 | 74 | 1.0 | 1.0 | 0.00 | 0.00 | 0.00 | 90 | 1022.2 |
| 20260831150532 | 73 | 111 | 1.0 | 1.0 | 0.00 | 0.00 | 0.00 | 91 | 1022.2 |
| 20260831150029 | 73 | 91 | 0.0 | 1.0 | 0.00 | 0.00 | 0.00 | 90 | 1022.4 |
| 20260831145523 | 73 | 116 | 0.0 | 0.0 | 0.00 | 0.00 | 0.00 | 91 | 1022.3 |
| 20260831145019 | 72 | 100 | 0.0 | 0.0 | 0.00 | 0.00 | 0.00 | 90 | 1022.5 |
| 20260831144514 | 72 | 86 | 1.0 | 1.0 | 0.00 | 0.00 | 0.00 | 90 | 1022.5 |
| 20260831144009 | 72 | 129 | 1.0 | 1.0 | 0.00 | 0.00 | 0.00 | 90 | 1022.6 |
| 20260831143504 | 71 | 119 | 0.0 | 1.0 | 0.00 | 0.00 | 0.00 | 91 | 1022.4 |
| 20260831142959 | 71 | 119 | 0.0 | 0.0 | 0.00 | 0.00 | 0.00 | 92 | 1022.5 |
| 20260831142455 | 71 | 123 | 2.0 | 2.0 | 0.00 | 0.00 | 0.00 | 92 | 1022.5 |
| 20260831141950 | 71 | 119 | 2.0 | 2.0 | 0.00 | 0.00 | 0.00 | 92 | 1022.6 |
| 20260831141450 | 72 | 280 | 0.0 | 1.0 | 0.00 | 0.00 | 0.00 | 94 | 1022.6 |
| 20260831140944 | 71 | 113 | 1.0 | 1.0 | 0.00 | 0.00 | 0.00 | 95 | 1022.4 |
| 20260831140439 | 72 | 119 | 0.0 | 1.0 | 0.00 | 0.00 | 0.00 | 96 | 1022.7 |
| 20260831135938 | 71 | 102 | 0.0 | 1.0 | 0.00 | 0.00 | 0.00 | 97 | 1022.7 |
| 20260831135437 | 71 | 81 | 1.0 | 1.0 | 0.00 | 0.00 | 0.00 | 97 | 1022.5 |
| 20260831134932 | 71 | 117 | 0.0 | 1.0 | 0.00 | 0.00 | 0.00 | 98 | 1022.3 |
| 20260831134428 | 71 | 86 | 1.0 | 2.0 | 0.00 | 0.00 | 0.00 | 97 | 1022.3 |
| 20260831133923 | 71 | 74 | 1.0 | 1.0 | 0.00 | 0.00 | 0.00 | 97 | 1022.5 |
| 20260831133417 | 71 | 116 | 0.0 | 0.0 | 0.00 | 0.00 | 0.00 | 97 | 1022.3 |
| 20260831132918 | 71 | 95 | 1.0 | 1.0 | 0.00 | 0.00 | 0.00 | 98 | 1022.1 |
| 20260831132413 | 70 | 158 | 0.0 | 0.0 | 0.00 | 0.00 | 0.00 | 99 | 1022.2 |
| 20260831131913 | 70 | 130 | 0.0 | 0.0 | 0.00 | 0.00 | 0.00 | 99 | 1022.2 |
| 20260831131408 | 70 | 143 | 0.0 | 0.0 | 0.00 | 0.00 | 0.00 | 99 | 1022.2 |
| 20260831130904 | 69 | 155 | 0.0 | 0.0 | 0.00 | 0.00 | 0.00 | 99 | 1022.3 |
| 20260831130359 | 69 | 225 | 1.0 | 1.0 | 0.00 | 0.00 | 0.00 | 99 | 1022.4 |
| 20260831125858 | 69 | 226 | 0.0 | 0.0 | 0.00 | 0.00 | 0.00 | 99 | 1022.4 |
| 20260831125353 | 69 | 202 | 0.0 | 0.0 | 0.00 | 0.00 | 0.00 | 99 | 1022.3 |
| 20260831124848 | 69 | 282 | 1.0 | 2.0 | 0.00 | 0.00 | 0.00 | 99 | 1022.2 |
| 20260831124344 | 69 | 153 | 0.0 | 0.0 | 0.00 | 0.00 | 0.00 | 99 | 1022.1 |
| 20260831123839 | 68 | 230 | 0.0 | 0.0 | 0.00 | 0.00 | 0.00 | 99 | 1022.4 |
| 20260831123338 | 69 | 137 | 0.0 | 0.0 | 0.00 | 0.00 | 0.00 | 99 | 1022.3 |
| 20260831122833 | 68 | 133 | 0.0 | 0.0 | 0.00 | 0.00 | 0.00 | 99 | 1022.2 |
| 20260831122328 | 68 | 147 | 0.0 | 0.0 | 0.00 | 0.00 | 0.00 | 99 | 1022.5 |
| 20260831121828 | 68 | 134 | 0.0 | 0.0 | 0.00 | 0.00 | 0.00 | 99 | 1022.2 |
| 20260831121325 | 68 | 174 | 0.0 | 0.0 | 0.00 | 0.00 | 0.00 | 99 | 1022.6 |
| 20260831120820 | 68 | 214 | 0.0 | 1.0 | 0.00 | 0.00 | 0.00 | 99 | 1022.3 |
| 20260831120314 | 68 | 150 | 0.0 | 0.0 | 0.00 | 0.00 | 0.00 | 99 | 1022.1 |
| 20260831115809 | 68 | 150 | 0.0 | 0.0 | 0.00 | 0.00 | 0.00 | 99 | 1022.2 |
| 20260831115306 | 68 | 200 | 0.0 | 0.0 | 0.00 | 0.00 | 0.00 | 99 | 1022.1 |
| 20260831114804 | 68 | 200 | 0.0 | 0.0 | 0.00 | 0.00 | 0.00 | 99 | 1022.1 |
| 20260831114258 | 68 | 200 | 0.0 | 0.0 | 0.00 | 0.00 | 0.00 | 99 | 1022.2 |
| 20260831113754 | 68 | 197 | 0.0 | 0.0 | 0.00 | 0.00 | 0.00 | 99 | 1022.3 |
| 20260831113248 | 68 | 157 | 0.0 | 0.0 | 0.00 | 0.00 | 0.00 | 99 | 1022.0 |
| 20260831112748 | 68 | 157 | 0.0 | 0.0 | 0.00 | 0.00 | 0.00 | 99 | 1022.0 |
| 20260831112243 | 67 | 157 | 0.0 | 0.0 | 0.00 | 0.00 | 0.00 | 99 | 1021.9 |
| 20260831111738 | 67 | 158 | 0.0 | 0.0 | 0.00 | 0.00 | 0.00 | 99 | 1021.9 |
| 20260831111235 | 67 | 157 | 0.0 | 0.0 | 0.00 | 0.00 | 0.00 | 99 | 1021.5 |
| 20260831110730 | 67 | 157 | 0.0 | 0.0 | 0.00 | 0.00 | 0.00 | 99 | 1021.6 |
| 20260831110225 | 67 | 156 | 0.0 | 0.0 | 0.00 | 0.00 | 0.00 | 99 | 1021.8 |
| 20260831105724 | 67 | 156 | 0.0 | 0.0 | 0.00 | 0.00 | 0.00 | 99 | 1021.7 |
| 20260831105220 | 67 | 156 | 0.0 | 0.0 | 0.00 | 0.00 | 0.00 | 99 | 1021.6 |
| 20260831104714 | 67 | 155 | 0.0 | 0.0 | 0.00 | 0.00 | 0.00 | 99 | 1021.4 |
| 20260831104211 | 67 | 155 | 0.0 | 0.0 | 0.00 | 0.00 | 0.00 | 99 | 1021.6 |
| 20260831103711 | 67 | 154 | 0.0 | 0.0 | 0.00 | 0.00 | 0.00 | 99 | 1021.5 |
| 20260831103207 | 67 | 154 | 0.0 | 0.0 | 0.00 | 0.00 | 0.00 | 99 | 1021.4 |
| 20260831102706 | 67 | 154 | 0.0 | 0.0 | 0.00 | 0.00 | 0.00 | 99 | 1021.5 |
| 20260831102201 | 67 | 154 | 0.0 | 0.0 | 0.00 | 0.00 | 0.00 | 99 | 1021.4 |
| 20260831101656 | 67 | 154 | 0.0 | 0.0 | 0.00 | 0.00 | 0.00 | 99 | 1021.3 |
| 20260831101152 | 68 | 154 | 0.0 | 0.0 | 0.00 | 0.00 | 0.00 | 99 | 1021.3 |
| 20260831100648 | 68 | 154 | 0.0 | 0.0 | 0.00 | 0.00 | 0.00 | 99 | 1021.3 |
| 20260831100144 | 68 | 155 | 0.0 | 0.0 | 0.00 | 0.00 | 0.00 | 99 | 1021.2 |
| 20260831095642 | 68 | 155 | 0.0 | 0.0 | 0.00 | 0.00 | 0.00 | 99 | 1021.2 |
| 20260831095137 | 67 | 155 | 0.0 | 0.0 | 0.00 | 0.00 | 0.00 | 99 | 1021.2 |
| 20260831094632 | 68 | 155 | 0.0 | 0.0 | 0.00 | 0.00 | 0.00 | 99 | 1021.2 |
| 20260831094128 | 67 | 213 | 0.0 | 0.0 | 0.00 | 0.00 | 0.00 | 99 | 1020.9 |
| 20260831093624 | 67 | 151 | 0.0 | 0.0 | 0.00 | 0.00 | 0.00 | 99 | 1021.0 |
| 20260831093120 | 67 | 135 | 0.0 | 0.0 | 0.00 | 0.00 | 0.00 | 99 | 1021.1 |
| 20260831092616 | 67 | 135 | 0.0 | 0.0 | 0.00 | 0.00 | 0.00 | 99 | 1020.9 |
| 20260831092111 | 67 | 135 | 0.0 | 0.0 | 0.00 | 0.00 | 0.00 | 99 | 1020.7 |
| 20260831091610 | 67 | 135 | 0.0 | 0.0 | 0.00 | 0.00 | 0.00 | 99 | 1020.8 |
| 20260831091106 | 68 | 135 | 0.0 | 0.0 | 0.00 | 0.00 | 0.00 | 99 | 1021.0 |
| 20260831090601 | 68 | 150 | 0.0 | 0.0 | 0.00 | 0.00 | 0.00 | 99 | 1020.8 |
| 20260831090058 | 68 | 151 | 0.0 | 0.0 | 0.00 | 0.00 | 0.00 | 99 | 1020.8 |
| 20260831085553 | 68 | 140 | 0.0 | 0.0 | 0.00 | 0.00 | 0.00 | 99 | 1020.8 |
| 20260831085048 | 68 | 143 | 0.0 | 0.0 | 0.00 | 0.00 | 0.00 | 99 | 1021.0 |
| 20260831084544 | 68 | 125 | 0.0 | 0.0 | 0.00 | 0.00 | 0.00 | 99 | 1021.3 |
| 20260831084040 | 68 | 118 | 0.0 | 0.0 | 0.00 | 0.00 | 0.00 | 99 | 1020.9 |
| 20260831083535 | 68 | 108 | 0.0 | 0.0 | 0.00 | 0.00 | 0.00 | 99 | 1020.8 |
| 20260831083030 | 68 | 112 | 0.0 | 0.0 | 0.00 | 0.00 | 0.00 | 99 | 1020.7 |
| 20260831082529 | 69 | 116 | 0.0 | 0.0 | 0.00 | 0.00 | 0.00 | 99 | 1020.8 |
| 20260831082025 | 69 | 134 | 0.0 | 0.0 | 0.00 | 0.00 | 0.00 | 99 | 1020.8 |
| 20260831081520 | 69 | 113 | 0.0 | 0.0 | 0.00 | 0.00 | 0.00 | 99 | 1020.8 |
| 20260831081016 | 69 | 121 | 0.0 | 0.0 | 0.00 | 0.00 | 0.00 | 99 | 1020.7 |
| 20260831080510 | 69 | 135 | 0.0 | 0.0 | 0.00 | 0.00 | 0.00 | 99 | 1020.7 |
| 20260831080007 | 69 | 158 | 0.0 | 0.0 | 0.00 | 0.00 | 0.00 | 99 | 1021.0 |
| 20260831075501 | 70 | 130 | 0.0 | 0.0 | 0.00 | 0.00 | 0.00 | 99 | 1020.8 |
| 20260831074957 | 70 | 127 | 0.0 | 0.0 | 0.00 | 0.00 | 0.00 | 99 | 1020.8 |
| 20260831074456 | 70 | 152 | 0.0 | 0.0 | 0.00 | 0.00 | 0.00 | 99 | 1020.6 |
| 20260831073950 | 70 | 152 | 0.0 | 0.0 | 0.00 | 0.00 | 0.00 | 99 | 1020.9 |
| 20260831073450 | 70 | 165 | 0.0 | 0.0 | 0.00 | 0.00 | 0.00 | 99 | 1021.0 |
| 20260831072949 | 70 | 165 | 0.0 | 0.0 | 0.00 | 0.00 | 0.00 | 99 | 1020.9 |
| 20260831072445 | 70 | 185 | 0.0 | 0.0 | 0.00 | 0.00 | 0.00 | 99 | 1021.0 |
| 20260831071942 | 70 | 185 | 0.0 | 0.0 | 0.00 | 0.00 | 0.00 | 99 | 1020.7 |
| 20260831071441 | 70 | 185 | 0.0 | 0.0 | 0.00 | 0.00 | 0.00 | 99 | 1020.9 |
| 20260831070936 | 70 | 179 | 0.0 | 0.0 | 0.00 | 0.00 | 0.00 | 99 | 1020.7 |
| 20260831070435 | 70 | 179 | 0.0 | 0.0 | 0.00 | 0.00 | 0.00 | 99 | 1020.9 |
| 20260831065935 | 70 | 179 | 0.0 | 0.0 | 0.00 | 0.00 | 0.00 | 99 | 1020.9 |
| 20260831065433 | 70 | 195 | 0.0 | 0.0 | 0.00 | 0.00 | 0.00 | 99 | 1020.6 |
| 20260831064927 | 70 | 195 | 0.0 | 0.0 | 0.00 | 0.00 | 0.00 | 99 | 1020.9 |
| 20260831064422 | 70 | 209 | 0.0 | 0.0 | 0.00 | 0.00 | 0.00 | 99 | 1020.9 |
| 20260831063918 | 70 | 186 | 0.0 | 0.0 | 0.00 | 0.00 | 0.00 | 99 | 1020.8 |
| 20260831063413 | 70 | 191 | 0.0 | 0.0 | 0.00 | 0.00 | 0.00 | 99 | 1020.9 |
| 20260831062907 | 70 | 197 | 0.0 | 0.0 | 0.00 | 0.00 | 0.00 | 99 | 1021.0 |
| 20260831062403 | 70 | 176 | 0.0 | 0.0 | 0.00 | 0.00 | 0.00 | 99 | 1021.0 |
| 20260831061901 | 70 | 164 | 0.0 | 0.0 | 0.00 | 0.00 | 0.00 | 99 | 1021.0 |
| 20260831061400 | 69 | 181 | 0.0 | 0.0 | 0.00 | 0.00 | 0.00 | 99 | 1020.9 |
| 20260831060857 | 69 | 181 | 0.0 | 0.0 | 0.00 | 0.00 | 0.00 | 99 | 1021.2 |
| 20260831060352 | 69 | 183 | 0.0 | 0.0 | 0.00 | 0.00 | 0.00 | 99 | 1021.0 |
| 20260831055851 | 70 | 186 | 0.0 | 0.0 | 0.00 | 0.00 | 0.00 | 99 | 1020.9 |
| 20260831055346 | 70 | 186 | 0.0 | 0.0 | 0.00 | 0.00 | 0.00 | 99 | 1020.8 |
| 20260831054842 | 70 | 186 | 0.0 | 0.0 | 0.00 | 0.00 | 0.00 | 99 | 1020.8 |
| 20260831054337 | 71 | 186 | 0.0 | 0.0 | 0.00 | 0.00 | 0.00 | 99 | 1020.6 |
| 20260831053836 | 71 | 186 | 0.0 | 0.0 | 0.00 | 0.00 | 0.00 | 99 | 1020.6 |
| 20260831053334 | 72 | 172 | 0.0 | 0.0 | 0.00 | 0.00 | 0.00 | 99 | 1020.4 |
| 20260831052829 | 71 | 147 | 0.0 | 0.0 | 0.00 | 0.00 | 0.00 | 99 | 1020.5 |
| 20260831052328 | 72 | 147 | 0.0 | 0.0 | 0.00 | 0.00 | 0.00 | 99 | 1020.4 |
| 20260831051826 | 72 | 146 | 0.0 | 0.0 | 0.00 | 0.00 | 0.00 | 99 | 1020.8 |
| 20260831051325 | 72 | 147 | 0.0 | 0.0 | 0.00 | 0.00 | 0.00 | 99 | 1020.5 |
| 20260831050820 | 72 | 147 | 0.0 | 0.0 | 0.00 | 0.00 | 0.00 | 99 | 1020.7 |
| 20260831050319 | 72 | 147 | 0.0 | 0.0 | 0.00 | 0.00 | 0.00 | 99 | 1021.0 |
| 20260831045814 | 72 | 137 | 0.0 | 0.0 | 0.00 | 0.00 | 0.00 | 99 | 1021.0 |
| 20260831045308 | 72 | 164 | 0.0 | 0.0 | 0.00 | 0.00 | 0.00 | 99 | 1020.8 |
| 20260831044803 | 72 | 183 | 0.0 | 0.0 | 0.00 | 0.00 | 0.00 | 99 | 1021.0 |
| 20260831044258 | 72 | 190 | 0.0 | 0.0 | 0.00 | 0.00 | 0.00 | 99 | 1021.0 |
| 20260831043754 | 72 | 191 | 0.0 | 0.0 | 0.00 | 0.00 | 0.00 | 99 | 1021.2 |
| 20260831043249 | 72 | 191 | 0.0 | 0.0 | 0.00 | 0.00 | 0.00 | 99 | 1021.0 |
| 20260831042748 | 72 | 191 | 0.0 | 0.0 | 0.00 | 0.00 | 0.00 | 99 | 1020.8 |
| 20260831042243 | 72 | 198 | 0.0 | 0.0 | 0.00 | 0.00 | 0.00 | 99 | 1021.0 |
| 20260831041738 | 72 | 198 | 0.0 | 0.0 | 0.00 | 0.00 | 0.00 | 99 | 1020.9 |
| 20260831041237 | 72 | 198 | 0.0 | 0.0 | 0.00 | 0.00 | 0.00 | 99 | 1021.1 |
| 20260831040732 | 73 | 199 | 0.0 | 0.0 | 0.00 | 0.00 | 0.00 | 99 | 1021.1 |
| 20260831040232 | 73 | 199 | 0.0 | 0.0 | 0.00 | 0.00 | 0.00 | 99 | 1021.2 |
| 20260831035731 | 73 | 209 | 0.0 | 0.0 | 0.00 | 0.18 | 0.18 | 99 | 1021.2 |
| 20260831035230 | 73 | 219 | 0.0 | 0.0 | 0.00 | 0.18 | 0.18 | 99 | 1021.1 |
| 20260831034729 | 73 | 222 | 0.0 | 0.0 | 0.00 | 0.18 | 0.18 | 99 | 1021.2 |
| 20260831034225 | 73 | 223 | 0.0 | 0.0 | 0.00 | 0.18 | 0.18 | 99 | 1020.9 |
| 20260831033720 | 73 | 225 | 0.0 | 0.0 | 0.00 | 0.18 | 0.18 | 99 | 1021.0 |
| 20260831033220 | 73 | 224 | 0.0 | 0.0 | 0.00 | 0.18 | 0.18 | 99 | 1021.2 |
| 20260831032715 | 73 | 226 | 0.0 | 0.0 | 0.00 | 0.18 | 0.18 | 99 | 1021.1 |
| 20260831032210 | 73 | 217 | 0.0 | 0.0 | 0.00 | 0.18 | 0.18 | 99 | 1021.1 |
| 20260831031705 | 73 | 228 | 1.0 | 1.0 | 0.00 | 0.18 | 0.18 | 99 | 1021.0 |
| 20260831031204 | 73 | 222 | 0.0 | 0.0 | 0.00 | 0.18 | 0.18 | 99 | 1021.0 |
| 20260831030704 | 73 | 230 | 1.0 | 1.0 | 0.00 | 0.18 | 0.18 | 99 | 1021.1 |
| 20260831030202 | 73 | 298 | 1.0 | 1.0 | 0.00 | 0.18 | 0.18 | 99 | 1020.8 |
| 20260831025701 | 73 | 235 | 0.0 | 0.0 | 0.00 | 0.18 | 0.18 | 99 | 1021.1 |
| 20260831025156 | 73 | 228 | 0.0 | 0.0 | 0.00 | 0.18 | 0.18 | 99 | 1020.9 |
| 20260831024653 | 73 | 217 | 1.0 | 1.0 | 0.00 | 0.18 | 0.18 | 99 | 1020.7 |
| 20260831024151 | 73 | 191 | 0.0 | 0.0 | 0.00 | 0.18 | 0.18 | 99 | 1021.0 |
| 20260831023649 | 73 | 181 | 0.0 | 0.0 | 0.00 | 0.18 | 0.18 | 99 | 1020.9 |
| 20260831023143 | 73 | 183 | 0.0 | 0.0 | 0.00 | 0.18 | 0.18 | 99 | 1020.9 |
| 20260831022638 | 73 | 183 | 0.0 | 0.0 | 0.00 | 0.18 | 0.18 | 99 | 1021.0 |
| 20260831022133 | 73 | 183 | 0.0 | 0.0 | 0.00 | 0.18 | 0.18 | 99 | 1021.0 |
| 20260831021632 | 73 | 186 | 0.0 | 0.0 | 0.00 | 0.18 | 0.18 | 99 | 1021.2 |
| 20260831021128 | 73 | 265 | 0.0 | 1.0 | 0.00 | 0.18 | 0.18 | 99 | 1021.1 |
| 20260831020623 | 73 | 196 | 0.0 | 0.0 | 0.00 | 0.18 | 0.18 | 99 | 1020.8 |
| 20260831020113 | 73 | 202 | 0.0 | 0.0 | 0.00 | 0.18 | 0.18 | 99 | 1021.2 |
| 20260831015609 | 74 | 210 | 0.0 | 0.0 | 0.00 | 0.18 | 0.18 | 99 | 1021.3 |
| 20260831015108 | 74 | 214 | 0.0 | 0.0 | 0.00 | 0.18 | 0.18 | 99 | 1021.3 |
| 20260831014603 | 74 | 188 | 0.0 | 0.0 | 0.00 | 0.18 | 0.18 | 99 | 1021.2 |
| 20260831014059 | 74 | 247 | 0.0 | 0.0 | 0.00 | 0.18 | 0.18 | 99 | 1021.2 |
| 20260831013555 | 74 | 234 | 1.0 | 1.0 | 0.05 | 0.18 | 0.18 | 99 | 1021.1 |
| 20260831013054 | 74 | 165 | 0.0 | 0.0 | 0.05 | 0.18 | 0.18 | 99 | 1021.1 |
| 20260831012549 | 74 | 164 | 0.0 | 0.0 | 0.00 | 0.17 | 0.17 | 99 | 1021.0 |
| 20260831012044 | 74 | 166 | 0.0 | 0.0 | 0.00 | 0.17 | 0.17 | 99 | 1021.0 |
| 20260831011543 | 74 | 172 | 0.0 | 0.0 | 0.00 | 0.17 | 0.17 | 99 | 1021.0 |
| 20260831011039 | 74 | 173 | 0.0 | 0.0 | 0.00 | 0.17 | 0.17 | 99 | 1021.0 |
| 20260831010534 | 74 | 168 | 0.0 | 0.0 | 0.00 | 0.17 | 0.17 | 99 | 1021.1 |
| 20260831010030 | 74 | 231 | 1.0 | 2.0 | 0.00 | 0.17 | 0.17 | 99 | 1021.2 |
| 20260831005525 | 74 | 193 | 0.0 | 0.0 | 0.00 | 0.17 | 0.17 | 99 | 1020.7 |
| 20260831005024 | 74 | 192 | 0.0 | 0.0 | 0.00 | 0.17 | 0.17 | 99 | 1020.8 |
| 20260831004521 | 74 | 192 | 0.0 | 0.0 | 0.00 | 0.17 | 0.17 | 99 | 1020.7 |
| 20260831004016 | 75 | 192 | 0.0 | 0.0 | 0.00 | 0.17 | 0.17 | 99 | 1020.6 |
| 20260831003512 | 75 | 317 | 0.0 | 0.0 | 0.00 | 0.17 | 0.17 | 99 | 1020.7 |
| 20260831003008 | 75 | 212 | 0.0 | 0.0 | 0.07 | 0.17 | 0.17 | 99 | 1020.6 |
| 20260831002506 | 75 | 233 | 1.0 | 2.0 | 0.31 | 0.17 | 0.17 | 99 | 1020.5 |
| 20260831002001 | 75 | 224 | 0.0 | 1.0 | 0.35 | 0.16 | 0.16 | 98 | 1020.3 |
| 20260831001456 | 75 | 82 | 0.0 | 0.0 | 0.05 | 0.11 | 0.11 | 98 | 1020.4 |
| 20260831000953 | 75 | 164 | 0.0 | 0.0 | 0.00 | 0.10 | 0.10 | 98 | 1020.4 |
| 20260831000449 | 75 | 164 | 0.0 | 0.0 | 0.00 | 0.10 | 0.10 | 98 | 1020.2 |
| 20260830235947 | 75 | 163 | 0.0 | 0.0 | 0.00 | 0.10 | 0.10 | 98 | 1020.2 |
| 20260830235442 | 75 | 163 | 0.0 | 0.0 | 0.00 | 0.10 | 0.10 | 98 | 1020.1 |
| 20260830234937 | 75 | 158 | 0.0 | 0.0 | 0.00 | 0.10 | 0.10 | 98 | 1020.2 |
| 20260830234432 | 75 | 158 | 0.0 | 0.0 | 0.00 | 0.10 | 0.10 | 98 | 1020.1 |
| 20260830233928 | 75 | 158 | 0.0 | 0.0 | 0.00 | 0.10 | 0.10 | 98 | 1020.0 |
| 20260830233424 | 75 | 165 | 0.0 | 0.0 | 0.00 | 0.10 | 0.10 | 99 | 1020.1 |
| 20260830232919 | 74 | 165 | 0.0 | 0.0 | 0.00 | 0.10 | 0.10 | 99 | 1020.2 |
| 20260830232414 | 74 | 176 | 0.0 | 0.0 | 0.00 | 0.10 | 0.10 | 99 | 1020.2 |
| 20260830231911 | 74 | 178 | 0.0 | 0.0 | 0.00 | 0.10 | 0.10 | 99 | 1020.3 |
| 20260830231401 | 74 | 178 | 0.0 | 0.0 | 0.00 | 0.10 | 0.10 | 99 | 1020.4 |
| 20260830230900 | 74 | 180 | 0.0 | 0.0 | 0.00 | 0.10 | 0.10 | 99 | 1020.6 |
| 20260830230356 | 74 | 180 | 0.0 | 0.0 | 0.00 | 0.10 | 0.10 | 99 | 1020.3 |
| 20260830225855 | 74 | 180 | 0.0 | 0.0 | 0.00 | 0.10 | 0.10 | 99 | 1020.4 |
| 20260830225350 | 74 | 180 | 0.0 | 0.0 | 0.00 | 0.10 | 0.10 | 99 | 1020.4 |
| 20260830224845 | 74 | 180 | 0.0 | 0.0 | 0.00 | 0.10 | 0.10 | 99 | 1020.6 |
| 20260830224344 | 74 | 150 | 0.0 | 0.0 | 0.00 | 0.10 | 0.10 | 99 | 1020.5 |
| 20260830223841 | 74 | 162 | 1.0 | 1.0 | 0.00 | 0.10 | 0.10 | 99 | 1020.2 |
| 20260830223337 | 74 | 163 | 0.0 | 0.0 | 0.00 | 0.10 | 0.10 | 99 | 1020.2 |
| 20260830222836 | 74 | 163 | 0.0 | 0.0 | 0.00 | 0.10 | 0.10 | 99 | 1020.4 |
| 20260830222326 | 74 | 163 | 0.0 | 0.0 | 0.00 | 0.10 | 0.10 | 99 | 1020.2 |
| 20260830221821 | 74 | 163 | 0.0 | 0.0 | 0.00 | 0.10 | 0.10 | 99 | 1020.4 |
| 20260830221318 | 74 | 163 | 0.0 | 0.0 | 0.00 | 0.10 | 0.10 | 99 | 1020.3 |
| 20260830220812 | 74 | 163 | 0.0 | 0.0 | 0.00 | 0.10 | 0.10 | 99 | 1020.2 |